Location: Bacharowice
(49.9333°N, 19.5833°E)
Time: 08:49:16
(UTC+00:00)

Cosmos 1833 Rocket - Pass Details

Date: 11 May 2021
Orbit: 831 x 841 km, 71.0° (Epoch: 21 June)

Event Time Altitude Azimuth Distance (km) Brightness Sun altitude
Rises 19:12:25 0° 332° (NNW) 3,407 7.4 -8.3°
Reaches altitude 10° 19:14:55 10° 336° (NNW) 2,469 6.4 -8.6°
Maximum altitude 19:20:32 63° 57° (ENE) 942 2.9 -9.2°
Enters shadow 19:25:39 13° 137° (SE) 2,278 4.3 -9.8°
